Year,Month,Day,Hour,Minute,Value (Times are PST for temperature in C)
2011,11,03,00,00,5.30
2011,11,03,00,01,5.30
2011,11,03,00,02,5.30
2011,11,03,00,03,5.30
2011,11,03,00,04,5.30
2011,11,03,00,05,5.30
2011,11,03,00,06,5.30
2011,11,03,00,07,5.30
2011,11,03,00,08,5.30
2011,11,03,00,09,5.30
2011,11,03,00,10,5.20
2011,11,03,00,11,5.20
2011,11,03,00,12,5.20
2011,11,03,00,13,5.20
2011,11,03,00,14,5.10
2011,11,03,00,15,5.10
2011,11,03,00,16,5.10
2011,11,03,00,17,5.10
2011,11,03,00,18,5.10
2011,11,03,00,19,5.00
2011,11,03,00,20,4.90
2011,11,03,00,21,4.90
2011,11,03,00,22,4.90
2011,11,03,00,23,4.80
2011,11,03,00,24,4.80
2011,11,03,00,25,4.80
2011,11,03,00,26,4.70
2011,11,03,00,27,4.70
2011,11,03,00,28,4.70
2011,11,03,00,29,4.60
2011,11,03,00,30,4.60
2011,11,03,00,31,4.60
2011,11,03,00,32,4.60
2011,11,03,00,33,4.60
2011,11,03,00,34,4.60
2011,11,03,00,35,4.50
2011,11,03,00,36,4.50
2011,11,03,00,37,4.50
2011,11,03,00,38,4.50
2011,11,03,00,39,4.50
2011,11,03,00,40,4.50
2011,11,03,00,41,4.50
2011,11,03,00,42,4.50
2011,11,03,00,43,4.50
2011,11,03,00,44,4.50
2011,11,03,00,45,4.40
2011,11,03,00,46,4.40
2011,11,03,00,47,4.40
2011,11,03,00,48,4.40
2011,11,03,00,49,4.40
2011,11,03,00,50,4.40
2011,11,03,00,51,4.40
2011,11,03,00,52,4.40
2011,11,03,00,53,4.30
2011,11,03,00,54,4.30
2011,11,03,00,55,4.30
2011,11,03,00,56,4.30
2011,11,03,00,57,4.30
2011,11,03,00,58,4.30
2011,11,03,00,59,4.40
2011,11,03,01,00,4.40
2011,11,03,01,01,4.40
2011,11,03,01,02,4.40
2011,11,03,01,03,4.40
2011,11,03,01,04,4.40
2011,11,03,01,05,4.40
2011,11,03,01,06,4.30
2011,11,03,01,07,4.30
2011,11,03,01,08,4.20
2011,11,03,01,09,4.20
2011,11,03,01,10,4.20
2011,11,03,01,11,4.20
2011,11,03,01,12,4.20
2011,11,03,01,13,4.20
2011,11,03,01,14,4.20
2011,11,03,01,15,4.20
2011,11,03,01,16,4.20
2011,11,03,01,17,4.20
2011,11,03,01,18,4.30
2011,11,03,01,19,4.30
2011,11,03,01,20,4.50
2011,11,03,01,21,4.60
2011,11,03,01,22,4.70
2011,11,03,01,23,4.80
2011,11,03,01,24,4.90
2011,11,03,01,25,4.90
2011,11,03,01,26,5.00
2011,11,03,01,27,5.10
2011,11,03,01,28,5.10
2011,11,03,01,29,5.10
2011,11,03,01,30,5.10
2011,11,03,01,31,5.10
2011,11,03,01,32,5.10
2011,11,03,01,33,5.10
2011,11,03,01,34,5.10
2011,11,03,01,35,5.10
2011,11,03,01,36,5.00
2011,11,03,01,37,4.90
2011,11,03,01,38,4.90
2011,11,03,01,39,4.90
2011,11,03,01,40,4.90
2011,11,03,01,41,4.90
2011,11,03,01,42,4.80
2011,11,03,01,43,4.80
2011,11,03,01,44,4.80
2011,11,03,01,45,4.70
2011,11,03,01,46,4.70
2011,11,03,01,47,4.70
2011,11,03,01,48,4.60
2011,11,03,01,49,4.60
2011,11,03,01,50,4.60
2011,11,03,01,51,4.60
2011,11,03,01,52,4.60
2011,11,03,01,53,4.60
2011,11,03,01,54,4.60
2011,11,03,01,55,4.50
2011,11,03,01,56,4.50
2011,11,03,01,57,4.50
2011,11,03,01,58,4.50
2011,11,03,01,59,4.40
2011,11,03,02,00,4.40
2011,11,03,02,01,4.40
2011,11,03,02,02,4.30
2011,11,03,02,03,4.20
2011,11,03,02,04,4.20
2011,11,03,02,05,4.20
2011,11,03,02,06,4.20
2011,11,03,02,07,4.10
2011,11,03,02,08,4.10
2011,11,03,02,09,4.10
2011,11,03,02,10,4.10
2011,11,03,02,11,4.10
2011,11,03,02,12,4.10
2011,11,03,02,13,4.10
2011,11,03,02,14,4.10
2011,11,03,02,15,4.10
2011,11,03,02,16,4.00
2011,11,03,02,17,4.00
2011,11,03,02,18,4.00
2011,11,03,02,19,3.90
2011,11,03,02,20,3.90
2011,11,03,02,21,3.90
2011,11,03,02,22,3.90
2011,11,03,02,23,3.90
2011,11,03,02,24,4.00
2011,11,03,02,25,4.00
2011,11,03,02,26,4.00
2011,11,03,02,27,4.00
2011,11,03,02,28,4.10
2011,11,03,02,29,4.10
2011,11,03,02,30,4.20
2011,11,03,02,31,4.20
2011,11,03,02,32,4.20
2011,11,03,02,33,4.20
2011,11,03,02,34,4.20
2011,11,03,02,35,4.20
2011,11,03,02,36,4.20
2011,11,03,02,37,4.20
2011,11,03,02,38,4.20
2011,11,03,02,39,4.20
2011,11,03,02,40,4.20
2011,11,03,02,41,4.20
2011,11,03,02,42,4.20
2011,11,03,02,43,4.20
2011,11,03,02,44,4.20
2011,11,03,02,45,4.10
2011,11,03,02,46,4.10
2011,11,03,02,47,4.10
2011,11,03,02,48,4.10
2011,11,03,02,49,4.10
2011,11,03,02,50,4.00
2011,11,03,02,51,4.00
2011,11,03,02,52,4.00
2011,11,03,02,53,3.90
2011,11,03,02,54,3.90
2011,11,03,02,55,3.90
2011,11,03,02,56,3.80
2011,11,03,02,57,3.80
2011,11,03,02,58,3.80
2011,11,03,02,59,3.70
2011,11,03,03,00,3.70
2011,11,03,03,01,3.70
2011,11,03,03,02,3.70
2011,11,03,03,03,3.60
2011,11,03,03,04,3.60
2011,11,03,03,05,3.60
2011,11,03,03,06,3.50
2011,11,03,03,07,3.50
2011,11,03,03,08,3.50
2011,11,03,03,09,3.50
2011,11,03,03,10,3.50
2011,11,03,03,11,3.50
2011,11,03,03,12,3.50
2011,11,03,03,13,3.60
2011,11,03,03,14,3.60
2011,11,03,03,15,3.60
2011,11,03,03,16,3.60
2011,11,03,03,17,3.60
2011,11,03,03,18,3.60
2011,11,03,03,19,3.70
2011,11,03,03,20,3.70
2011,11,03,03,21,3.70
2011,11,03,03,22,3.80
2011,11,03,03,23,3.80
2011,11,03,03,24,3.80
2011,11,03,03,25,3.80
2011,11,03,03,26,3.80
2011,11,03,03,27,3.80
2011,11,03,03,28,3.80
2011,11,03,03,29,3.80
2011,11,03,03,30,3.80
2011,11,03,03,31,3.80
2011,11,03,03,32,3.80
2011,11,03,03,33,3.80
2011,11,03,03,34,3.80
2011,11,03,03,35,3.80
2011,11,03,03,36,3.80
2011,11,03,03,37,3.80
2011,11,03,03,38,3.70
2011,11,03,03,39,3.70
2011,11,03,03,40,3.70
2011,11,03,03,41,3.70
2011,11,03,03,42,3.70
2011,11,03,03,43,3.70
2011,11,03,03,44,3.60
2011,11,03,03,45,3.60
2011,11,03,03,46,3.60
2011,11,03,03,47,3.60
2011,11,03,03,48,3.50
2011,11,03,03,49,3.50
2011,11,03,03,50,3.50
2011,11,03,03,51,3.50
2011,11,03,03,52,3.50
2011,11,03,03,53,3.50
2011,11,03,03,54,3.50
2011,11,03,03,55,3.40
2011,11,03,03,56,3.40
2011,11,03,03,57,3.40
2011,11,03,03,58,3.40
2011,11,03,03,59,3.40
2011,11,03,04,00,3.40
2011,11,03,04,01,3.40
2011,11,03,04,02,3.30
2011,11,03,04,03,3.30
2011,11,03,04,04,3.30
2011,11,03,04,05,3.30
2011,11,03,04,06,3.30
2011,11,03,04,07,3.30
2011,11,03,04,08,3.30
2011,11,03,04,09,3.20
2011,11,03,04,10,3.20
2011,11,03,04,11,3.20
2011,11,03,04,12,3.10
2011,11,03,04,13,3.10
2011,11,03,04,14,3.10
2011,11,03,04,15,3.10
2011,11,03,04,16,3.10
2011,11,03,04,17,3.00
2011,11,03,04,18,2.90
2011,11,03,04,19,2.90
2011,11,03,04,20,2.90
2011,11,03,04,21,2.90
2011,11,03,04,22,2.90
2011,11,03,04,23,2.80
2011,11,03,04,24,2.80
2011,11,03,04,25,2.70
2011,11,03,04,26,2.70
2011,11,03,04,27,2.70
2011,11,03,04,28,2.70
2011,11,03,04,29,2.70
2011,11,03,04,30,2.70
2011,11,03,04,31,2.70
2011,11,03,04,32,2.70
2011,11,03,04,33,2.70
2011,11,03,04,34,2.60
2011,11,03,04,35,2.60
2011,11,03,04,36,2.60
2011,11,03,04,37,2.60
2011,11,03,04,38,2.50
2011,11,03,04,39,2.50
2011,11,03,04,40,2.50
2011,11,03,04,41,2.50
2011,11,03,04,42,2.50
2011,11,03,04,43,2.40
2011,11,03,04,44,2.40
2011,11,03,04,45,2.40
2011,11,03,04,46,2.40
2011,11,03,04,47,2.40
2011,11,03,04,48,2.40
2011,11,03,04,49,2.30
2011,11,03,04,50,2.30
2011,11,03,04,51,2.30
2011,11,03,04,52,2.30
2011,11,03,04,53,2.20
2011,11,03,04,54,2.20
2011,11,03,04,55,2.20
2011,11,03,04,56,2.20
2011,11,03,04,57,2.20
2011,11,03,04,58,2.20
2011,11,03,04,59,2.20
2011,11,03,05,00,2.20
2011,11,03,05,01,2.20
2011,11,03,05,02,2.20
2011,11,03,05,03,2.20
2011,11,03,05,04,2.20
2011,11,03,05,05,2.20
2011,11,03,05,06,2.20
2011,11,03,05,07,2.20
2011,11,03,05,08,2.20
2011,11,03,05,09,2.20
2011,11,03,05,10,2.30
2011,11,03,05,11,2.30
2011,11,03,05,12,2.30
2011,11,03,05,13,2.30
2011,11,03,05,14,2.30
2011,11,03,05,15,2.20
2011,11,03,05,16,2.20
2011,11,03,05,17,2.20
2011,11,03,05,18,2.20
2011,11,03,05,19,2.20
2011,11,03,05,20,2.10
2011,11,03,05,21,2.10
2011,11,03,05,22,2.10
2011,11,03,05,23,2.10
2011,11,03,05,24,2.10
2011,11,03,05,25,2.00
2011,11,03,05,26,2.00
2011,11,03,05,27,2.00
2011,11,03,05,28,2.00
2011,11,03,05,29,2.00
2011,11,03,05,30,2.00
2011,11,03,05,31,2.00
2011,11,03,05,32,1.90
2011,11,03,05,33,1.90
2011,11,03,05,34,2.00
2011,11,03,05,35,2.00
2011,11,03,05,36,2.00
2011,11,03,05,37,2.00
2011,11,03,05,38,2.00
2011,11,03,05,39,2.00
2011,11,03,05,40,2.10
2011,11,03,05,41,2.10
2011,11,03,05,42,2.10
2011,11,03,05,43,2.10
2011,11,03,05,44,2.00
2011,11,03,05,45,2.00
2011,11,03,05,46,2.00
2011,11,03,05,47,2.00
2011,11,03,05,48,1.90
2011,11,03,05,49,1.90
2011,11,03,05,50,1.90
2011,11,03,05,51,1.90
2011,11,03,05,52,1.90
2011,11,03,05,53,1.90
2011,11,03,05,54,1.90
2011,11,03,05,55,1.90
2011,11,03,05,56,1.90
2011,11,03,05,57,1.80
2011,11,03,05,58,1.80
2011,11,03,05,59,1.80
2011,11,03,06,00,1.80
2011,11,03,06,01,1.80
2011,11,03,06,02,1.90
2011,11,03,06,03,1.90
2011,11,03,06,04,1.80
2011,11,03,06,05,1.80
2011,11,03,06,06,1.80
2011,11,03,06,07,1.80
2011,11,03,06,08,1.80
2011,11,03,06,09,1.80
2011,11,03,06,10,1.80
2011,11,03,06,11,1.80
2011,11,03,06,12,1.80
2011,11,03,06,13,1.80
2011,11,03,06,14,1.80
2011,11,03,06,15,1.80
2011,11,03,06,16,1.80
2011,11,03,06,17,1.80
2011,11,03,06,18,1.80
2011,11,03,06,19,1.80
2011,11,03,06,20,1.80
2011,11,03,06,21,1.80
2011,11,03,06,22,1.80
2011,11,03,06,23,1.80
2011,11,03,06,24,1.80
2011,11,03,06,25,1.80
2011,11,03,06,26,1.80
2011,11,03,06,27,1.80
2011,11,03,06,28,1.80
2011,11,03,06,29,1.80
2011,11,03,06,30,1.80
2011,11,03,06,31,1.80
2011,11,03,06,32,1.80
2011,11,03,06,33,1.80
2011,11,03,06,34,1.80
2011,11,03,06,35,1.80
2011,11,03,06,36,1.80
2011,11,03,06,37,1.80
2011,11,03,06,38,1.80
2011,11,03,06,39,1.90
2011,11,03,06,40,1.90
2011,11,03,06,41,2.00
2011,11,03,06,42,2.00
2011,11,03,06,43,2.10
2011,11,03,06,44,2.10
2011,11,03,06,45,2.20
2011,11,03,06,46,2.20
2011,11,03,06,47,2.20
2011,11,03,06,48,2.20
2011,11,03,06,49,2.30
2011,11,03,06,50,2.30
2011,11,03,06,51,2.40
2011,11,03,06,52,2.50
2011,11,03,06,53,2.50
2011,11,03,06,54,2.50
2011,11,03,06,55,2.60
2011,11,03,06,56,2.60
2011,11,03,06,57,2.60
2011,11,03,06,58,2.60
2011,11,03,06,59,2.60
2011,11,03,07,00,2.60
2011,11,03,07,01,2.60
2011,11,03,07,02,2.60
2011,11,03,07,03,2.50
2011,11,03,07,04,2.50
2011,11,03,07,05,2.50
2011,11,03,07,06,2.40
2011,11,03,07,07,2.40
2011,11,03,07,08,2.40
2011,11,03,07,09,2.40
2011,11,03,07,10,2.30
2011,11,03,07,11,2.30
2011,11,03,07,12,2.40
2011,11,03,07,13,2.40
2011,11,03,07,14,2.50
2011,11,03,07,15,2.60
2011,11,03,07,16,2.60
2011,11,03,07,17,2.70
2011,11,03,07,18,2.70
2011,11,03,07,19,2.70
2011,11,03,07,20,2.70
2011,11,03,07,21,2.70
2011,11,03,07,22,2.70
2011,11,03,07,23,2.70
2011,11,03,07,24,2.70
2011,11,03,07,25,2.70
2011,11,03,07,26,2.70
2011,11,03,07,27,2.70
2011,11,03,07,28,2.70
2011,11,03,07,29,2.60
2011,11,03,07,30,2.60
2011,11,03,07,31,2.60
2011,11,03,07,32,2.50
2011,11,03,07,33,2.50
2011,11,03,07,34,2.50
2011,11,03,07,35,2.50
2011,11,03,07,36,2.50
2011,11,03,07,37,2.50
2011,11,03,07,38,2.50
2011,11,03,07,39,2.50
2011,11,03,07,40,2.50
2011,11,03,07,41,2.50
2011,11,03,07,42,2.40
2011,11,03,07,43,2.40
2011,11,03,07,44,2.40
2011,11,03,07,45,2.40
2011,11,03,07,46,2.30
2011,11,03,07,47,2.30
2011,11,03,07,48,2.30
2011,11,03,07,49,2.20
2011,11,03,07,50,2.20
2011,11,03,07,51,2.20
2011,11,03,07,52,2.20
2011,11,03,07,53,2.20
2011,11,03,07,54,2.20
2011,11,03,07,55,2.30
2011,11,03,07,56,2.30
2011,11,03,07,57,2.30
2011,11,03,07,58,2.30
2011,11,03,07,59,2.40
2011,11,03,08,00,2.40
2011,11,03,08,01,2.40
2011,11,03,08,02,2.40
2011,11,03,08,03,2.40
2011,11,03,08,04,2.40
2011,11,03,08,05,2.40
2011,11,03,08,06,2.40
2011,11,03,08,07,2.40
2011,11,03,08,08,2.40
2011,11,03,08,09,2.40
2011,11,03,08,10,2.40
2011,11,03,08,11,2.40
2011,11,03,08,12,2.40
2011,11,03,08,13,2.40
2011,11,03,08,14,2.40
2011,11,03,08,15,2.40
2011,11,03,08,16,2.50
2011,11,03,08,17,2.50
2011,11,03,08,18,2.60
2011,11,03,08,19,2.70
2011,11,03,08,20,2.90
2011,11,03,08,21,2.90
2011,11,03,08,22,3.00
2011,11,03,08,23,3.10
2011,11,03,08,24,3.10
2011,11,03,08,25,3.10
2011,11,03,08,26,3.10
2011,11,03,08,27,3.10
2011,11,03,08,28,3.10
2011,11,03,08,29,3.10
2011,11,03,08,30,3.10
2011,11,03,08,31,3.10
2011,11,03,08,32,3.10
2011,11,03,08,33,3.10
2011,11,03,08,34,3.10
2011,11,03,08,35,3.10
2011,11,03,08,36,3.10
2011,11,03,08,37,3.10
2011,11,03,08,38,3.10
2011,11,03,08,39,3.10
2011,11,03,08,40,3.10
2011,11,03,08,41,3.10
2011,11,03,08,42,3.10
2011,11,03,08,43,3.10
2011,11,03,08,44,3.10
2011,11,03,08,45,3.10
2011,11,03,08,46,3.10
2011,11,03,08,47,3.10
2011,11,03,08,48,3.10
2011,11,03,08,49,3.10
2011,11,03,08,50,3.10
2011,11,03,08,51,3.10
2011,11,03,08,52,3.10
2011,11,03,08,53,3.10
2011,11,03,08,54,3.10
2011,11,03,08,55,3.10
2011,11,03,08,56,3.10
2011,11,03,08,57,3.20
2011,11,03,08,58,3.20
2011,11,03,08,59,3.20
2011,11,03,09,00,3.30
2011,11,03,09,01,3.30
2011,11,03,09,02,3.30
2011,11,03,09,03,3.30
2011,11,03,09,04,3.30
2011,11,03,09,05,3.30
2011,11,03,09,06,3.30
2011,11,03,09,07,3.30
2011,11,03,09,08,3.30
2011,11,03,09,09,3.30
2011,11,03,09,10,3.30
2011,11,03,09,11,3.40
2011,11,03,09,12,3.50
2011,11,03,09,13,3.50
2011,11,03,09,14,3.60
2011,11,03,09,15,3.70
2011,11,03,09,16,3.70
2011,11,03,09,17,3.70
2011,11,03,09,18,3.80
2011,11,03,09,19,3.80
2011,11,03,09,20,3.80
2011,11,03,09,21,3.90
2011,11,03,09,22,4.00
2011,11,03,09,23,4.00
2011,11,03,09,24,4.00
2011,11,03,09,25,4.10
2011,11,03,09,26,4.10
2011,11,03,09,27,4.20
2011,11,03,09,28,4.20
2011,11,03,09,29,4.30
2011,11,03,09,30,4.40
2011,11,03,09,31,4.50
2011,11,03,09,32,4.50
2011,11,03,09,33,4.60
2011,11,03,09,34,4.60
2011,11,03,09,35,4.80
2011,11,03,09,36,5.00
2011,11,03,09,37,5.10
2011,11,03,09,38,5.20
2011,11,03,09,39,5.30
2011,11,03,09,40,5.30
2011,11,03,09,41,5.40
2011,11,03,09,42,5.40
2011,11,03,09,43,5.40
2011,11,03,09,44,5.40
2011,11,03,09,45,5.50
2011,11,03,09,46,5.60
2011,11,03,09,47,5.60
2011,11,03,09,48,5.70
2011,11,03,09,49,5.70
2011,11,03,09,50,5.70
2011,11,03,09,51,5.70
2011,11,03,09,52,5.70
2011,11,03,09,53,5.70
2011,11,03,09,54,5.60
2011,11,03,09,55,5.60
2011,11,03,09,56,5.60
2011,11,03,09,57,5.70
2011,11,03,09,58,5.70
2011,11,03,09,59,5.70
2011,11,03,10,00,5.70
2011,11,03,10,01,5.70
2011,11,03,10,02,5.70
2011,11,03,10,03,5.80
2011,11,03,10,04,5.90
2011,11,03,10,05,5.90
2011,11,03,10,06,5.90
2011,11,03,10,07,6.00
2011,11,03,10,08,6.00
2011,11,03,10,09,6.20
2011,11,03,10,10,6.20
2011,11,03,10,11,6.30
2011,11,03,10,12,6.40
2011,11,03,10,13,6.40
2011,11,03,10,14,6.40
2011,11,03,10,15,6.40
2011,11,03,10,16,6.50
2011,11,03,10,17,6.60
2011,11,03,10,18,6.60
2011,11,03,10,19,6.60
2011,11,03,10,20,6.70
2011,11,03,10,21,6.90
2011,11,03,10,22,7.00
2011,11,03,10,23,7.10
2011,11,03,10,24,7.20
2011,11,03,10,25,7.30
2011,11,03,10,26,7.30
2011,11,03,10,27,7.30
2011,11,03,10,28,7.30
2011,11,03,10,29,7.20
2011,11,03,10,30,7.10
2011,11,03,10,31,7.00
2011,11,03,10,32,7.10
2011,11,03,10,33,7.10
2011,11,03,10,34,7.10
2011,11,03,10,35,7.10
2011,11,03,10,36,7.00
2011,11,03,10,37,7.00
2011,11,03,10,38,7.00
2011,11,03,10,39,6.90
2011,11,03,10,40,6.80
2011,11,03,10,41,6.70
2011,11,03,10,42,6.60
2011,11,03,10,43,6.60
2011,11,03,10,44,6.60
2011,11,03,10,45,6.70
2011,11,03,10,46,6.70
2011,11,03,10,47,6.80
2011,11,03,10,48,6.80
2011,11,03,10,49,6.80
2011,11,03,10,50,6.70
2011,11,03,10,51,6.80
2011,11,03,10,52,6.80
2011,11,03,10,53,6.80
2011,11,03,10,54,6.80
2011,11,03,10,55,6.80
2011,11,03,10,56,6.90
2011,11,03,10,57,7.00
2011,11,03,10,58,7.00
2011,11,03,10,59,7.00
2011,11,03,11,00,7.00
2011,11,03,11,01,7.00
2011,11,03,11,02,7.00
2011,11,03,11,03,7.00
2011,11,03,11,04,7.00
2011,11,03,11,05,7.00
2011,11,03,11,06,7.10
2011,11,03,11,07,7.10
2011,11,03,11,08,7.10
2011,11,03,11,09,7.00
2011,11,03,11,10,7.00
2011,11,03,11,11,7.00
2011,11,03,11,12,7.00
2011,11,03,11,13,7.00
2011,11,03,11,14,7.00
2011,11,03,11,15,7.00
2011,11,03,11,16,7.00
2011,11,03,11,17,7.00
2011,11,03,11,18,7.00
2011,11,03,11,19,7.00
2011,11,03,11,20,7.00
2011,11,03,11,21,7.00
2011,11,03,11,22,7.00
2011,11,03,11,23,7.00
2011,11,03,11,24,7.00
2011,11,03,11,25,7.10
2011,11,03,11,26,7.10
2011,11,03,11,27,7.20
2011,11,03,11,28,7.20
2011,11,03,11,29,7.30
2011,11,03,11,30,7.40
2011,11,03,11,31,7.50
2011,11,03,11,32,7.60
2011,11,03,11,33,7.70
2011,11,03,11,34,7.80
2011,11,03,11,35,7.80
2011,11,03,11,36,7.80
2011,11,03,11,37,7.80
2011,11,03,11,38,7.80
2011,11,03,11,39,7.90
2011,11,03,11,40,7.90
2011,11,03,11,41,8.00
2011,11,03,11,42,8.00
2011,11,03,11,43,8.10
2011,11,03,11,44,8.20
2011,11,03,11,45,8.30
2011,11,03,11,46,8.40
2011,11,03,11,47,8.50
2011,11,03,11,48,8.50
2011,11,03,11,49,8.50
2011,11,03,11,50,8.60
2011,11,03,11,51,8.70
2011,11,03,11,52,8.70
2011,11,03,11,53,8.70
2011,11,03,11,54,8.60
2011,11,03,11,55,8.50
2011,11,03,11,56,8.50
2011,11,03,11,57,8.50
2011,11,03,11,58,8.50
2011,11,03,11,59,8.60
2011,11,03,12,00,8.70
2011,11,03,12,01,8.70
2011,11,03,12,02,8.80
2011,11,03,12,03,8.80
2011,11,03,12,04,8.70
2011,11,03,12,05,8.80
2011,11,03,12,06,8.90
2011,11,03,12,07,8.90
2011,11,03,12,08,8.90
2011,11,03,12,09,8.80
2011,11,03,12,10,8.70
2011,11,03,12,11,8.70
2011,11,03,12,12,8.70
2011,11,03,12,13,8.70
2011,11,03,12,14,8.70
2011,11,03,12,15,8.80
2011,11,03,12,16,8.80
2011,11,03,12,17,8.80
2011,11,03,12,18,8.80
2011,11,03,12,19,8.80
2011,11,03,12,20,8.70
2011,11,03,12,21,8.70
2011,11,03,12,22,8.70
2011,11,03,12,23,8.70
2011,11,03,12,24,8.70
2011,11,03,12,25,8.70
2011,11,03,12,26,8.70
2011,11,03,12,27,8.70
2011,11,03,12,28,8.70
2011,11,03,12,29,8.70
2011,11,03,12,30,8.70
2011,11,03,12,31,8.60
2011,11,03,12,32,8.50
2011,11,03,12,33,8.50
2011,11,03,12,34,8.50
2011,11,03,12,35,8.60
2011,11,03,12,36,8.60
2011,11,03,12,37,8.70
2011,11,03,12,38,8.70
2011,11,03,12,39,8.60
2011,11,03,12,40,8.50
2011,11,03,12,41,8.60
2011,11,03,12,42,8.50
2011,11,03,12,43,8.40
2011,11,03,12,44,8.30
2011,11,03,12,45,8.30
2011,11,03,12,46,8.30
2011,11,03,12,47,8.30
2011,11,03,12,48,8.30
2011,11,03,12,49,8.20
2011,11,03,12,50,8.20
2011,11,03,12,51,8.20
2011,11,03,12,52,8.20
2011,11,03,12,53,8.20
2011,11,03,12,54,8.20
2011,11,03,12,55,8.20
2011,11,03,12,56,8.20
2011,11,03,12,57,8.20
2011,11,03,12,58,8.20
2011,11,03,12,59,8.30
2011,11,03,13,00,8.40
2011,11,03,13,01,8.50
2011,11,03,13,02,8.50
2011,11,03,13,03,8.50
2011,11,03,13,04,8.50
2011,11,03,13,05,8.50
2011,11,03,13,06,8.60
2011,11,03,13,07,8.70
2011,11,03,13,08,8.70
2011,11,03,13,09,8.70
2011,11,03,13,10,8.80
2011,11,03,13,11,8.90
2011,11,03,13,12,8.90
2011,11,03,13,13,9.00
2011,11,03,13,14,9.00
2011,11,03,13,15,8.90
2011,11,03,13,16,8.90
2011,11,03,13,17,8.90
2011,11,03,13,18,8.80
2011,11,03,13,19,8.70
2011,11,03,13,20,8.70
2011,11,03,13,21,8.70
2011,11,03,13,22,8.70
2011,11,03,13,23,8.80
2011,11,03,13,24,9.00
2011,11,03,13,25,9.00
2011,11,03,13,26,8.80
2011,11,03,13,27,8.70
2011,11,03,13,28,8.50
2011,11,03,13,29,8.40
2011,11,03,13,30,8.30
2011,11,03,13,31,8.40
2011,11,03,13,32,8.40
2011,11,03,13,33,8.30
2011,11,03,13,34,8.30
2011,11,03,13,35,8.30
2011,11,03,13,36,8.30
2011,11,03,13,37,8.40
2011,11,03,13,38,8.40
2011,11,03,13,39,8.40
2011,11,03,13,40,8.50
2011,11,03,13,41,8.50
2011,11,03,13,42,8.50
2011,11,03,13,43,8.50
2011,11,03,13,44,8.60
2011,11,03,13,45,8.60
2011,11,03,13,46,8.60
2011,11,03,13,47,8.50
2011,11,03,13,48,8.50
2011,11,03,13,49,8.40
2011,11,03,13,50,8.30
2011,11,03,13,51,8.20
2011,11,03,13,52,8.20
2011,11,03,13,53,8.10
2011,11,03,13,54,8.10
2011,11,03,13,55,8.00
2011,11,03,13,56,8.00
2011,11,03,13,57,8.00
2011,11,03,13,58,8.00
2011,11,03,13,59,7.90
2011,11,03,14,00,7.90
2011,11,03,14,01,7.90
2011,11,03,14,02,7.90
2011,11,03,14,03,8.00
2011,11,03,14,04,8.00
2011,11,03,14,05,8.00
2011,11,03,14,06,8.00
2011,11,03,14,07,8.00
2011,11,03,14,08,8.00
2011,11,03,14,09,8.00
2011,11,03,14,10,7.90
2011,11,03,14,11,8.00
2011,11,03,14,12,8.00
2011,11,03,14,13,8.00
2011,11,03,14,14,8.10
2011,11,03,14,15,8.10
2011,11,03,14,16,8.10
2011,11,03,14,17,8.10
2011,11,03,14,18,8.10
2011,11,03,14,19,8.00
2011,11,03,14,20,8.00
2011,11,03,14,21,7.90
2011,11,03,14,22,7.80
2011,11,03,14,23,7.80
2011,11,03,14,24,7.80
2011,11,03,14,25,7.80
2011,11,03,14,26,7.80
2011,11,03,14,27,7.80
2011,11,03,14,28,7.80
2011,11,03,14,29,7.80
2011,11,03,14,30,7.80
2011,11,03,14,31,7.80
2011,11,03,14,32,7.80
2011,11,03,14,33,7.80
2011,11,03,14,34,7.80
2011,11,03,14,35,7.80
2011,11,03,14,36,7.80
2011,11,03,14,37,7.80
2011,11,03,14,38,7.80
2011,11,03,14,39,7.80
2011,11,03,14,40,7.80
2011,11,03,14,41,7.80
2011,11,03,14,42,7.90
2011,11,03,14,43,7.90
2011,11,03,14,44,8.00
2011,11,03,14,45,8.00
2011,11,03,14,46,8.00
2011,11,03,14,47,8.00
2011,11,03,14,48,8.00
2011,11,03,14,49,8.00
2011,11,03,14,50,8.10
2011,11,03,14,51,8.10
2011,11,03,14,52,8.20
2011,11,03,14,53,8.20
2011,11,03,14,54,8.30
2011,11,03,14,55,8.30
2011,11,03,14,56,8.30
2011,11,03,14,57,8.40
2011,11,03,14,58,8.50
2011,11,03,14,59,8.50
2011,11,03,15,00,8.60
2011,11,03,15,01,8.70
2011,11,03,15,02,8.70
2011,11,03,15,03,8.80
2011,11,03,15,04,8.80
2011,11,03,15,05,8.80
2011,11,03,15,06,8.90
2011,11,03,15,07,9.00
2011,11,03,15,08,9.00
2011,11,03,15,09,9.00
2011,11,03,15,10,9.00
2011,11,03,15,11,9.00
2011,11,03,15,12,9.10
2011,11,03,15,13,9.00
2011,11,03,15,14,9.00
2011,11,03,15,15,8.90
2011,11,03,15,16,8.90
2011,11,03,15,17,8.80
2011,11,03,15,18,8.80
2011,11,03,15,19,8.80
2011,11,03,15,20,8.80
2011,11,03,15,21,8.90
2011,11,03,15,22,8.90
2011,11,03,15,23,8.80
2011,11,03,15,24,8.80
2011,11,03,15,25,8.70
2011,11,03,15,26,8.70
2011,11,03,15,27,8.70
2011,11,03,15,28,8.70
2011,11,03,15,29,8.70
2011,11,03,15,30,8.70
2011,11,03,15,31,8.70
2011,11,03,15,32,8.70
2011,11,03,15,33,8.70
2011,11,03,15,34,8.70
2011,11,03,15,35,8.70
2011,11,03,15,36,8.70
2011,11,03,15,37,8.70
2011,11,03,15,38,8.70
2011,11,03,15,39,8.70
2011,11,03,15,40,8.70
2011,11,03,15,41,8.70
2011,11,03,15,42,8.60
2011,11,03,15,43,8.60
2011,11,03,15,44,8.70
2011,11,03,15,45,8.70
2011,11,03,15,46,8.70
2011,11,03,15,47,8.70
2011,11,03,15,48,8.60
2011,11,03,15,49,8.60
2011,11,03,15,50,8.60
2011,11,03,15,51,8.60
2011,11,03,15,52,8.60
2011,11,03,15,53,8.70
2011,11,03,15,54,8.70
2011,11,03,15,55,8.70
2011,11,03,15,56,8.70
2011,11,03,15,57,8.70
2011,11,03,15,58,8.70
2011,11,03,15,59,8.70
2011,11,03,16,00,8.70
2011,11,03,16,01,8.70
2011,11,03,16,02,8.70
2011,11,03,16,03,8.70
2011,11,03,16,04,8.70
2011,11,03,16,05,8.70
2011,11,03,16,06,8.70
2011,11,03,16,07,8.70
2011,11,03,16,08,8.70
2011,11,03,16,09,8.70
2011,11,03,16,10,8.70
2011,11,03,16,11,8.70
2011,11,03,16,12,8.70
2011,11,03,16,13,8.70
2011,11,03,16,14,8.70
2011,11,03,16,15,8.70
2011,11,03,16,16,8.70
2011,11,03,16,17,8.70
2011,11,03,16,18,8.70
2011,11,03,16,19,8.70
2011,11,03,16,20,8.70
2011,11,03,16,21,8.70
2011,11,03,16,22,8.60
2011,11,03,16,23,8.60
2011,11,03,16,24,8.50
2011,11,03,16,25,8.50
2011,11,03,16,26,8.50
2011,11,03,16,27,8.50
2011,11,03,16,28,8.50
2011,11,03,16,29,8.60
2011,11,03,16,30,8.60
2011,11,03,16,31,8.60
2011,11,03,16,32,8.60
2011,11,03,16,33,8.50
2011,11,03,16,34,8.50
2011,11,03,16,35,8.40
2011,11,03,16,36,8.30
2011,11,03,16,37,8.30
2011,11,03,16,38,8.30
2011,11,03,16,39,8.20
2011,11,03,16,40,8.20
2011,11,03,16,41,8.00
2011,11,03,16,42,7.90
2011,11,03,16,43,7.90
2011,11,03,16,44,7.80
2011,11,03,16,45,7.80
2011,11,03,16,46,7.80
2011,11,03,16,47,7.80
2011,11,03,16,48,7.80
2011,11,03,16,49,7.70
2011,11,03,16,50,7.70
2011,11,03,16,51,7.70
2011,11,03,16,52,7.70
2011,11,03,16,53,7.70
2011,11,03,16,54,7.70
2011,11,03,16,55,7.60
2011,11,03,16,56,7.60
2011,11,03,16,57,7.60
2011,11,03,16,58,7.60
2011,11,03,16,59,7.60
2011,11,03,17,00,7.60
2011,11,03,17,01,7.60
2011,11,03,17,02,7.60
2011,11,03,17,03,7.50
2011,11,03,17,04,7.40
2011,11,03,17,05,7.40
2011,11,03,17,06,7.30
2011,11,03,17,07,7.30
2011,11,03,17,08,7.20
2011,11,03,17,09,7.20
2011,11,03,17,10,7.10
2011,11,03,17,11,7.10
2011,11,03,17,12,7.10
2011,11,03,17,13,7.10
2011,11,03,17,14,7.10
2011,11,03,17,15,7.10
2011,11,03,17,16,7.10
2011,11,03,17,17,7.10
2011,11,03,17,18,7.10
2011,11,03,17,19,7.10
2011,11,03,17,20,7.10
2011,11,03,17,21,7.00
2011,11,03,17,22,7.00
2011,11,03,17,23,7.10
2011,11,03,17,24,7.10
2011,11,03,17,25,7.10
2011,11,03,17,26,7.10
2011,11,03,17,27,7.10
2011,11,03,17,28,7.10
2011,11,03,17,29,7.10
2011,11,03,17,30,7.10
2011,11,03,17,31,7.10
2011,11,03,17,32,7.20
2011,11,03,17,33,7.20
2011,11,03,17,34,7.10
2011,11,03,17,35,7.10
2011,11,03,17,36,7.10
2011,11,03,17,37,7.10
2011,11,03,17,38,7.10
2011,11,03,17,39,7.00
2011,11,03,17,40,6.90
2011,11,03,17,41,6.80
2011,11,03,17,42,6.80
2011,11,03,17,43,6.70
2011,11,03,17,44,6.70
2011,11,03,17,45,6.70
2011,11,03,17,46,6.60
2011,11,03,17,47,6.60
2011,11,03,17,48,6.60
2011,11,03,17,49,6.60
2011,11,03,17,50,6.60
2011,11,03,17,51,6.60
2011,11,03,17,52,6.60
2011,11,03,17,53,6.60
2011,11,03,17,54,6.60
2011,11,03,17,55,6.60
2011,11,03,17,56,6.60
2011,11,03,17,57,6.50
2011,11,03,17,58,6.40
2011,11,03,17,59,6.40
2011,11,03,18,00,6.30
2011,11,03,18,01,6.20
2011,11,03,18,02,6.20
2011,11,03,18,03,6.20
2011,11,03,18,04,6.10
2011,11,03,18,05,6.10
2011,11,03,18,06,6.10